N8GD Weather Reports


time (UTC)temp
C
wind
direction
speed
KPH
gust
KPH
rain 1hr
cm
rain 24hr
cm
rain mn
cm
humidity
%
barometer
mb
20260506143744 9 6 9.7 17.7 0.00 1.14 1.14 94 1008.6
20260506143646 9 308 9.7 17.7 0.00 1.14 1.14 94 1008.6
20260506142243 8 344 6.4 20.9 0.00 1.14 1.14 94 1008.4
20260506142143 8 24 11.3 11.3 0.00 1.14 1.14 94 1008.4
20260506140744 8 35 0.0 22.5 0.03 1.14 1.14 95 1008.1
20260506135243 8 340 4.8 11.3 0.05 1.14 1.12 95 1008.3
20260506135143 8 4 11.3 12.9 0.05 1.14 1.14 95 1008.3
20260506134005 8 8 8.0 12.9 0.05 1.14 1.14 95 1008.0
20260506133742 8 4 3.2 12.9 0.05 1.14 1.14 95 1008.0
20260506132503 8 348 4.8 14.5 0.08 1.14 1.14 94 1007.8
20260506132243 8 348 4.8 14.5 0.08 1.14 1.14 94 1007.8
20260506131007 8 44 0.0 17.7 0.05 1.12 1.12 95 1007.8
20260506130744 8 39 0.0 17.7 0.05 1.12 1.12 95 1007.8
20260506125243 8 6 3.2 17.7 0.05 1.09 1.09 94 1007.8
20260506125144 8 6 3.2 17.7 0.05 1.09 1.09 94 1007.8
20260506124007 8 19 8.0 12.9 0.05 1.09 1.09 94 1007.1
20260506123744 8 19 8.0 12.9 0.05 1.09 1.09 94 1007.1
20260506122242 8 27 11.3 19.3 0.05 1.09 1.09 94 1006.1
20260506120743 8 6 8.0 16.1 0.03 1.07 1.07 94 1006.7
20260506115242 9 346 0.0 11.3 0.00 1.04 1.02 94 1006.8
20260506113742 9 19 0.0 16.1 0.00 1.04 1.04 94 1006.6
20260506112243 9 11 9.7 14.5 0.05 1.04 1.04 94 1006.0
20260506105243 10 348 11.3 20.9 0.15 1.04 1.04 94 1005.4
20260506104006 11 17 0.0 20.9 0.20 1.04 1.04 94 1005.5
20260506103743 11 17 0.0 20.9 0.20 1.04 1.04 94 1005.5
20260506102243 12 354 9.7 8.0 0.18 0.99 0.99 95 1004.8
20260506102143 13 329 14.5 9.7 0.15 0.94 0.94 95 1004.8
20260506100742 13 206 0.0 6.4 0.15 0.91 0.91 95 1005.0
20260506095243 13 214 0.0 8.0 0.23 0.89 0.89 95 1004.8
20260506095204 13 214 0.0 8.0 0.23 0.89 0.89 95 1004.8
20260506093742 13 202 1.6 12.9 0.23 0.84 0.84 95 1004.8
20260506093709 13 231 0.0 12.9 0.23 0.84 0.84 95 1004.8
20260506092244 13 214 0.0 12.9 0.25 0.81 0.81 95 1004.8
20260506090742 13 205 0.0 9.7 0.33 0.76 0.76 95 1004.9
20260506085144 13 237 0.0 9.7 0.36 0.66 0.66 95 1004.9
20260506084528 13 207 1.6 9.7 0.36 0.66 0.66 95 1004.9
20260506083645 13 204 4.8 9.7 0.33 0.61 0.61 95 1005.4
20260506083028 13 219 0.0 6.4 0.28 0.56 0.56 95 1005.4
20260506082148 13 200 3.2 0.0 0.20 0.48 0.48 95 1005.4
20260506081528 13 227 1.6 0.0 0.20 0.48 0.48 94 1005.4
20260506073029 13 210 0.0 0.0 0.00 0.28 0.28 94 1005.3
20260506072506 13 210 0.0 0.0 0.03 0.28 0.28 94 1004.9
20260506072144 13 210 0.0 0.0 0.03 0.28 0.28 94 1004.9
20260506071528 13 210 0.0 0.0 0.03 0.28 0.28 94 1004.9
20260506071006 13 210 0.0 0.0 0.03 0.28 0.28 93 1005.1
20260506062144 13 216 0.0 0.0 0.10 0.25 0.25 93 1005.9
20260506061529 13 216 0.0 0.0 0.10 0.28 0.25 93 1005.9
20260506060722 13 241 0.0 6.4 0.10 0.28 0.25 93 1006.3
20260506043742 14 196 0.0 0.0 0.10 0.15 0.10 91 1007.5
20260506042244 15 212 0.0 0.0 0.08 0.13 0.08 91 1007.5
20260506042145 15 212 0.0 4.8 0.05 0.10 0.05 91 1007.5
20260506040742 15 212 0.0 1.6 0.03 0.08 0.03 90 1007.7
20260506040651 15 212 0.0 1.6 0.03 0.08 0.03 90 1007.7
20260506035244 15 239 0.0 3.2 0.03 0.08 0.08 89 1007.6
20260506035146 15 260 0.0 1.6 0.00 0.05 0.05 89 1007.6
20260506033742 15 275 0.0 6.4 0.00 0.05 0.05 86 1007.4
20260506032242 16 285 0.0 6.4 0.00 0.05 0.05 84 1007.3
20260506030742 16 280 0.0 4.8 0.00 0.05 0.05 82 1007.1
20260506025243 16 280 0.0 1.6 0.00 0.05 0.05 80 1007.4
20260506025144 16 280 0.0 1.6 0.00 0.05 0.05 80 1007.4
20260506023743 16 265 0.0 4.8 0.00 0.05 0.05 78 1007.0
20260506022242 17 280 1.6 12.9 0.00 0.05 0.05 75 1007.1
20260506022143 17 280 1.6 12.9 0.00 0.05 0.05 75 1007.1
20260506020743 17 200 0.0 14.5 0.00 0.05 0.05 74 1007.0
20260506015242 18 285 0.0 24.1 0.00 0.05 0.05 64 1006.9
20260506013743 19 228 0.0 9.7 0.00 0.05 0.05 59 1006.7
20260506012242 19 250 1.6 6.4 0.00 0.05 0.05 59 1006.6
20260506010743 19 234 1.6 9.7 0.00 0.05 0.05 57 1006.5
20260506005242 19 196 1.6 14.5 0.00 0.05 0.05 57 1006.5
20260506003743 20 238 1.6 16.1 0.00 0.05 0.05 57 1006.8
20260506002242 20 222 1.6 22.5 0.00 0.05 0.05 56 1006.7
20260506000742 20 223 3.2 14.5 0.00 0.05 0.05 57 1006.8
20260505235243 20 229 3.2 11.3 0.00 0.05 0.05 58 1006.8
20260505233742 20 231 1.6 12.9 0.00 0.05 0.05 59 1006.7
20260505232243 20 252 0.0 16.1 0.00 0.05 0.05 58 1006.5
20260505230742 21 235 1.6 17.7 0.00 0.05 0.05 57 1006.5
20260505225243 20 215 8.0 12.9 0.00 0.05 0.05 58 1006.7
20260505223743 20 229 1.6 9.7 0.00 0.05 0.05 59 1006.8
20260505222243 21 207 8.0 17.7 0.00 0.05 0.05 59 1006.9
20260505220743 21 199 3.2 19.3 0.00 0.05 0.05 57 1006.9
20260505215243 21 237 4.8 27.4 0.00 0.05 0.05 57 1006.9
20260505213743 21 241 8.0 20.9 0.00 0.05 0.05 57 1007.1
20260505212243 21 231 6.4 29.0 0.00 0.05 0.05 58 1007.0
20260505210743 21 234 0.0 14.5 0.00 0.05 0.05 56 1006.9
20260505205243 21 236 4.8 25.7 0.00 0.05 0.05 58 1007.2
20260505203743 21 226 9.7 32.2 0.00 0.05 0.05 57 1007.2
20260505202242 21 212 9.7 32.2 0.00 0.05 0.05 56 1007.1
20260505200743 21 229 11.3 24.1 0.00 0.05 0.05 58 1007.3
20260505195243 21 240 14.5 20.9 0.00 0.05 0.05 58 1007.4
20260505195147 21 240 14.5 20.9 0.00 0.05 0.05 58 1007.4
20260505193743 21 241 17.7 24.1 0.00 0.05 0.05 58 1007.5
20260505192243 21 256 19.3 29.0 0.00 0.05 0.05 57 1007.5
20260505190742 21 247 12.9 32.2 0.00 0.05 0.05 54 1007.6
20260505185243 22 265 6.4 33.8 0.00 0.05 0.05 54 1007.6
20260505183742 22 247 9.7 35.4 0.00 0.05 0.05 54 1007.9
20260505182243 21 204 8.0 37.0 0.00 0.05 0.05 55 1007.9
20260505182144 21 207 8.0 32.2 0.00 0.05 0.05 54 1007.9
20260505180743 21 249 17.7 30.6 0.00 0.05 0.05 54 1007.8
20260505175244 21 238 9.7 37.0 0.00 0.05 0.05 58 1007.8
20260505175145 21 238 9.7 37.0 0.00 0.05 0.05 58 1007.8
20260505173742 21 206 17.7 29.0 0.00 0.05 0.05 55 1008.0
20260505172242 21 215 6.4 22.5 0.00 0.05 0.05 59 1008.1
20260505172146 21 232 4.8 22.5 0.00 0.05 0.05 57 1008.1
20260505170743 20 260 9.7 24.1 0.00 0.05 0.05 60 1008.1
20260505165242 20 270 8.0 29.0 0.00 0.05 0.05 61 1007.9
20260505165141 20 270 8.0 29.0 0.00 0.05 0.05 61 1007.9
20260505163743 19 227 8.0 37.0 0.00 0.05 0.05 58 1008.1
20260505162243 20 232 9.7 30.6 0.00 0.05 0.05 58 1007.6
20260505160744 21 190 8.0 27.4 0.00 0.05 0.05 56 1007.7
20260505152242 20 233 14.5 29.0 0.00 0.05 0.05 59 1008.1
20260505150743 20 229 6.4 32.2 0.00 0.05 0.05 60 1007.6